Location: Augirein
(42.9320°N, 0.9181°E)
Time: 15:14:21
(UTC+00:00)

Cosmos 1242 Rocket - Pass Details

Date: 20 June 2021
Orbit: 446 x 483 km, 81.2° (Epoch: 31 July)

Event Time Altitude Azimuth Distance (km) Brightness Sun altitude
Rises 01:54:18 0° 342° (NNW) 2,526 6.9 -18.4°
Reaches altitude 10° 01:56:28 10° 334° (NNW) 1,649 5.7 -18.2°
Maximum altitude 01:59:51 38° 265° (W) 739 3.2 -17.9°
Enters shadow 02:00:04 38° 256° (WSW) 745 3.1 -17.9°
